Location: Oberwangen
(47.4286°N, 8.9679°E)
Time: 22:20:51
(UTC+00:00)

Cosmos 1802 Rocket - Pass Details

Date: 20 June 2021
Orbit: 955 x 1010 km, 82.9° (Epoch: 23 July)

Event Time Altitude Azimuth Distance (km) Brightness Sun altitude
Rises 20:46:42 0° 350° (N) 3,687 8.3 -10.6°
Reaches altitude 10° 20:49:13 10° 349° (N) 2,743 7.5 -10.9°
Maximum altitude 20:55:30 79° 264° (W) 1,012 4.2 -11.5°
Drops below altitude 10° 21:01:51 10° 179° (S) 2,762 5.9 -12.1°
Enters shadow 21:01:51 10° 179° (S) 2,765 5.9 -12.1°
